STARLINK-34379 (64302 NORAD) Tracking and Keplerian Element Data

This shows tracking and keplerian element data for the satellite.

Feedback or suggestion? Click here.




ElementValue
Catalog64302
NameSTARLINK-34379
Epoch Orbit3008
Epoch Day354.12091239
Epoch Year2025
RAAN19.6854
Inclination70.0012
Eccentricity0.0002713
Argument of Perigee257.724
Mean Anonmoly102.3638
Mean Motion15.42735225
Decay Rate0.0002341
L11 64302U 25123M 25354.12091239 .00023410 00000+0 53595-3 0 9993
L22 64302 70.0012 19.6854 0002713 257.7240 102.3638 15.42735225 30080



Live tracking and technical data element details for STARLINK-34379 (NORAD 64302). STARLINK-34379 can be tracked NOW for your location showing map with azimuth and elevation plus other details from your city location.







IsCatalogInMostPopularTable: catalog: 64302, numindb: 5
Update: records affected: 1



GetName: 64302 STARLINK-34379

Hit Count: updated at: Sat, 07 Feb 2026 07:20:04 GMT